DW9972 Weather Reports


Display with metric or nautical units.
time (UTC)temp
F
wind
direction
speed
MPH
gust
MPH
rain 1hr
in
rain 24hr
in
rain mn
in
humidity
%
barometer
mb
20260504174339 52 270 4.0 11.0 0.00 0.00 0.00 46 1016.7
20260504173849 54 293 4.0 9.0 0.00 0.00 0.00 45 1016.8
20260504173340 53 23 3.0 8.0 0.00 0.00 0.00 48 1016.6
20260504172834 53 330 2.0 7.0 0.00 0.00 0.00 46 1016.7
20260504172404 52 75 4.0 7.0 0.00 0.00 0.00 48 1016.8
20260504171832 52 142 2.0 8.0 0.00 0.00 0.00 48 1016.8
20260504171403 51 110 3.0 9.0 0.00 0.00 0.00 51 1016.9
20260504170838 50 38 2.0 11.0 0.00 0.00 0.00 49 1016.8
20260504170349 49 334 4.0 12.0 0.00 0.00 0.00 50 1016.8
20260504160336 48 267 0.0 4.0 0.00 0.00 0.00 56 1016.9
20260504150855 46 34 1.0 4.0 0.00 0.00 0.00 59 1017.3
20260504150339 46 311 3.0 5.0 0.00 0.00 0.00 56 1017.3
20260504140833 44 143 0.0 3.0 0.00 0.00 0.00 63 1017.4
20260504140343 43 143 0.0 3.0 0.00 0.00 0.00 64 1017.4
20260504130327 42 355 1.0 2.0 0.00 0.00 0.00 63 1017.1
20260504110340 45 304 8.0 15.0 0.00 0.00 0.00 52 1016.4
20260504100352 47 331 5.0 13.0 0.00 0.00 0.00 48 1016.2
20260504081825 53 360 12.0 23.0 0.00 0.00 0.00 44 1013.6
20260504081335 50 319 13.0 25.0 0.00 0.00 0.00 47 1013.4
20260504080849 45 360 9.0 25.0 0.00 0.00 0.00 53 1013.2
20260504080337 46 105 1.0 6.0 0.00 0.00 0.00 54 1012.9
20260504070345 45 225 1.0 3.0 0.00 0.00 0.00 52 1011.8
20260504050333 51 190 1.0 3.0 0.00 0.00 0.00 45 1011.9
20260504045835 52 174 0.0 5.0 0.00 0.00 0.00 46 1011.9
20260504045326 52 169 2.0 5.0 0.00 0.00 0.00 44 1012.0
20260504044836 52 199 2.0 4.0 0.00 0.00 0.00 44 1011.9
20260504044345 53 201 1.0 6.0 0.00 0.00 0.00 44 1011.9
20260504043839 53 210 3.0 5.0 0.00 0.00 0.00 44 1011.9
20260504043347 53 221 0.0 3.0 0.00 0.00 0.00 43 1011.9
20260504042833 54 223 1.0 3.0 0.00 0.00 0.00 42 1011.8
20260504042333 54 221 2.0 3.0 0.00 0.00 0.00 40 1011.9
20260504041840 55 223 1.0 3.0 0.00 0.00 0.00 39 1011.8
20260504041339 55 223 0.0 3.0 0.00 0.00 0.00 39 1011.7
20260504040855 56 222 1.0 4.0 0.00 0.00 0.00 37 1011.7
20260504040342 56 222 2.0 4.0 0.00 0.00 0.00 38 1011.7
20260504035837 57 275 1.0 2.0 0.00 0.00 0.00 37 1011.6
20260504035323 58 273 1.0 2.0 0.00 0.00 0.00 36 1011.7
20260504034840 59 274 0.0 1.0 0.00 0.00 0.00 34 1011.7
20260504034338 60 274 1.0 1.0 0.00 0.00 0.00 33 1011.7
20260504033855 61 273 0.0 1.0 0.00 0.00 0.00 33 1011.6
20260504033326 62 274 0.0 2.0 0.00 0.00 0.00 30 1011.5
20260504032845 62 274 1.0 3.0 0.00 0.00 0.00 29 1011.5
20260504032336 63 273 2.0 5.0 0.00 0.00 0.00 29 1011.4
20260504031903 63 273 2.0 6.0 0.00 0.00 0.00 28 1011.5
20260504031349 63 273 3.0 7.0 0.00 0.00 0.00 29 1011.4
20260504030837 63 268 2.0 6.0 0.00 0.00 0.00 28 1011.4
20260504030400 63 227 3.0 6.0 0.00 0.00 0.00 28 1011.4
20260504025845 63 277 3.0 8.0 0.00 0.00 0.00 28 1011.3
20260504025335 63 279 3.0 8.0 0.00 0.00 0.00 29 1011.2
20260504024844 63 267 3.0 5.0 0.00 0.00 0.00 31 1011.2
20260504024334 63 278 3.0 6.0 0.00 0.00 0.00 31 1011.1
20260504023907 64 278 2.0 7.0 0.00 0.00 0.00 30 1011.1
20260504023341 64 277 3.0 7.0 0.00 0.00 0.00 30 1011.1
20260504022829 65 273 3.0 5.0 0.00 0.00 0.00 28 1011.0
20260504022337 65 278 2.0 4.0 0.00 0.00 0.00 29 1010.9
20260504021827 66 276 1.0 4.0 0.00 0.00 0.00 28 1010.9
20260504021332 66 276 2.0 4.0 0.00 0.00 0.00 28 1011.0
20260504020840 66 276 2.0 4.0 0.00 0.00 0.00 27 1011.0
20260504020330 67 276 2.0 5.0 0.00 0.00 0.00 26 1011.0
20260504015824 67 276 2.0 8.0 0.00 0.00 0.00 26 1010.9
20260504015343 68 306 5.0 8.0 0.00 0.00 0.00 25 1011.0
20260504014834 68 284 2.0 6.0 0.00 0.00 0.00 26 1011.0
20260504014340 68 305 3.0 8.0 0.00 0.00 0.00 26 1011.0
20260504013830 68 276 5.0 8.0 0.00 0.00 0.00 25 1011.0
20260504013337 68 263 2.0 9.0 0.00 0.00 0.00 25 1010.9
20260504012830 68 285 4.0 14.0 0.00 0.00 0.00 24 1011.0
20260504012335 69 281 7.0 14.0 0.00 0.00 0.00 24 1011.0
20260504011841 69 270 5.0 10.0 0.00 0.00 0.00 24 1011.1
20260504011359 69 250 5.0 14.0 0.00 0.00 0.00 24 1011.2
20260504010849 69 283 7.0 17.0 0.00 0.00 0.00 23 1011.2
20260504010336 70 263 7.0 17.0 0.00 0.00 0.00 23 1011.2
20260504005829 70 360 7.0 16.0 0.00 0.00 0.00 23 1011.2
20260504005337 70 304 6.0 16.0 0.00 0.00 0.00 22 1011.2
20260504004848 70 280 8.0 12.0 0.00 0.00 0.00 22 1011.2
20260504004402 71 323 7.0 16.0 0.00 0.00 0.00 21 1011.3
20260504003832 71 304 7.0 16.0 0.00 0.00 0.00 20 1011.3
20260504003340 71 331 5.0 10.0 0.00 0.00 0.00 21 1011.3
20260504002829 72 259 5.0 11.0 0.00 0.00 0.00 20 1011.4
20260504002351 72 276 5.0 14.0 0.00 0.00 0.00 21 1011.4
20260504001835 72 250 8.0 14.0 0.00 0.00 0.00 19 1011.4
20260504001324 72 252 7.0 14.0 0.00 0.00 0.00 21 1011.4
20260504000832 72 298 8.0 14.0 0.00 0.00 0.00 21 1011.5
20260504000336 72 279 3.0 11.0 0.00 0.00 0.00 25 1011.4
20260503235858 72 284 6.0 11.0 0.00 0.00 0.00 22 1011.4
20260503235338 72 267 4.0 11.0 0.00 0.00 0.00 24 1011.5
20260503234857 72 273 6.0 11.0 0.00 0.00 0.00 24 1011.5
20260503234341 71 286 4.0 11.0 0.00 0.00 0.00 24 1011.6
20260503233857 71 269 5.0 14.0 0.00 0.00 0.00 22 1011.5
20260503233335 71 265 6.0 15.0 0.00 0.00 0.00 25 1011.5
20260503232904 71 246 6.0 15.0 0.00 0.00 0.00 24 1011.5
20260503232332 71 259 8.0 15.0 0.00 0.00 0.00 23 1011.7
20260503231838 72 261 3.0 11.0 0.00 0.00 0.00 23 1011.7
20260503231326 72 286 5.0 11.0 0.00 0.00 0.00 24 1011.7
20260503230834 72 234 6.0 11.0 0.00 0.00 0.00 23 1011.8
20260503230350 72 344 3.0 15.0 0.00 0.00 0.00 23 1011.8
20260503225901 71 350 5.0 21.0 0.00 0.00 0.00 24 1011.9
20260503225333 72 180 9.0 21.0 0.00 0.00 0.00 23 1011.9
20260503224835 72 302 5.0 12.0 0.00 0.00 0.00 25 1011.9
20260503224351 71 215 3.0 9.0 0.00 0.00 0.00 29 1011.9
20260503223838 71 265 3.0 12.0 0.00 0.00 0.00 26 1012.0
20260503223347 71 279 5.0 12.0 0.00 0.00 0.00 25 1012.1
20260503222833 71 320 4.0 16.0 0.00 0.00 0.00 28 1012.0
20260503222338 72 222 10.0 16.0 0.00 0.00 0.00 24 1012.3
20260503221831 71 277 10.0 14.0 0.00 0.00 0.00 26 1012.2
20260503221407 72 270 5.0 8.0 0.00 0.00 0.00 26 1012.2
20260503220834 71 309 2.0 9.0 0.00 0.00 0.00 29 1012.3
20260503220328 71 317 4.0 16.0 0.00 0.00 0.00 25 1012.5
20260503215835 71 285 8.0 13.0 0.00 0.00 0.00 23 1012.6
20260503215347 71 211 5.0 18.0 0.00 0.00 0.00 23 1012.5
20260503214837 71 244 9.0 18.0 0.00 0.00 0.00 23 1012.6
20260503214349 71 239 6.0 11.0 0.00 0.00 0.00 22 1012.6
20260503213836 71 304 5.0 10.0 0.00 0.00 0.00 23 1012.6
20260503213343 71 200 4.0 12.0 0.00 0.00 0.00 21 1012.7
20260503212830 71 254 5.0 13.0 0.00 0.00 0.00 23 1012.9
20260503212338 71 324 6.0 13.0 0.00 0.00 0.00 20 1012.8
20260503211848 71 322 3.0 12.0 0.00 0.00 0.00 21 1012.9
20260503211349 71 307 7.0 18.0 0.00 0.00 0.00 22 1013.1
20260503210839 70 238 9.0 18.0 0.00 0.00 0.00 21 1013.0
20260503210336 70 304 5.0 14.0 0.00 0.00 0.00 22 1013.2
20260503205844 70 360 10.0 14.0 0.00 0.00 0.00 23 1013.3
20260503205332 70 308 5.0 14.0 0.00 0.00 0.00 24 1013.2
20260503204833 70 317 5.0 16.0 0.00 0.00 0.00 26 1013.2
20260503204338 70 286 8.0 16.0 0.00 0.00 0.00 23 1013.4
20260503203825 70 278 4.0 13.0 0.00 0.00 0.00 26 1013.6
20260503203341 70 322 8.0 13.0 0.00 0.00 0.00 25 1013.8
20260503202910 71 298 4.0 10.0 0.00 0.00 0.00 24 1013.9
20260503202337 71 259 2.0 14.0 0.00 0.00 0.00 24 1013.9
20260503201845 71 215 8.0 14.0 0.00 0.00 0.00 23 1013.9
20260503201335 71 132 3.0 10.0 0.00 0.00 0.00 24 1013.9
20260503200824 71 238 3.0 9.0 0.00 0.00 0.00 25 1014.0
20260503200330 71 93 2.0 19.0 0.00 0.00 0.00 22 1014.0
20260503195837 71 191 7.0 14.0 0.00 0.00 0.00 24 1014.1
20260503195339 70 195 6.0 14.0 0.00 0.00 0.00 26 1014.2
20260503194832 71 167 5.0 12.0 0.00 0.00 0.00 27 1014.2
20260503194337 70 173 4.0 13.0 0.00 0.00 0.00 26 1014.3
20260503193838 70 200 6.0 13.0 0.00 0.00 0.00 27 1014.3
20260503193409 70 200 8.0 14.0 0.00 0.00 0.00 27 1014.5
20260503192835 70 185 4.0 13.0 0.00 0.00 0.00 27 1014.4
20260503192329 71 212 4.0 19.0 0.00 0.00 0.00 29 1014.5
20260503191830 70 186 6.0 19.0 0.00 0.00 0.00 29 1014.6
20260503191339 70 120 6.0 16.0 0.00 0.00 0.00 31 1014.6
20260503190831 70 171 4.0 15.0 0.00 0.00 0.00 34 1014.6
20260503190338 70 202 4.0 17.0 0.00 0.00 0.00 30 1014.8
20260503185854 69 128 8.0 17.0 0.00 0.00 0.00 32 1014.6
20260503185350 68 219 4.0 10.0 0.00 0.00 0.00 30 1014.8
20260503184842 68 260 3.0 16.0 0.00 0.00 0.00 30 1014.9
20260503184343 69 225 8.0 16.0 0.00 0.00 0.00 30 1015.0
20260503183850 69 201 3.0 9.0 0.00 0.00 0.00 31 1015.0
20260503183341 69 130 3.0 10.0 0.00 0.00 0.00 31 1015.0
20260503182829 68 159 2.0 15.0 0.00 0.00 0.00 31 1015.3
20260503182405 68 200 7.0 15.0 0.00 0.00 0.00 32 1015.3
20260503181833 67 257 6.0 14.0 0.00 0.00 0.00 31 1015.4
20260503181356 67 306 8.0 14.0 0.00 0.00 0.00 30 1015.5
20260503180844 67 199 4.0 13.0 0.00 0.00 0.00 32 1015.5
20260503180357 66 323 4.0 16.0 0.00 0.00 0.00 35 1015.5
20260503175842 65 274 7.0 16.0 0.00 0.00 0.00 36 1015.7
20260503175331 65 192 2.0 9.0 0.00 0.00 0.00 40 1015.8
20260503174838 66 340 6.0 9.0 0.00 0.00 0.00 40 1015.8